Year,Month,Day,Hour,Minute,Value (Times are PST for temperature in C)
2017,09,16,00,00,12.30
2017,09,16,00,01,12.30
2017,09,16,00,02,12.30
2017,09,16,00,03,12.30
2017,09,16,00,04,12.30
2017,09,16,00,05,12.30
2017,09,16,00,06,12.20
2017,09,16,00,07,12.20
2017,09,16,00,08,12.20
2017,09,16,00,09,12.20
2017,09,16,00,10,12.20
2017,09,16,00,11,12.20
2017,09,16,00,12,12.20
2017,09,16,00,13,12.20
2017,09,16,00,14,12.10
2017,09,16,00,15,12.10
2017,09,16,00,16,12.10
2017,09,16,00,17,12.10
2017,09,16,00,18,12.10
2017,09,16,00,19,12.00
2017,09,16,00,20,12.00
2017,09,16,00,21,11.90
2017,09,16,00,22,11.90
2017,09,16,00,23,11.90
2017,09,16,00,24,11.90
2017,09,16,00,25,11.80
2017,09,16,00,26,11.80
2017,09,16,00,27,11.80
2017,09,16,00,28,11.80
2017,09,16,00,29,11.80
2017,09,16,00,30,11.80
2017,09,16,00,31,11.70
2017,09,16,00,32,11.70
2017,09,16,00,33,11.70
2017,09,16,00,34,11.70
2017,09,16,00,35,11.70
2017,09,16,00,36,11.70
2017,09,16,00,37,11.80
2017,09,16,00,38,11.80
2017,09,16,00,39,11.80
2017,09,16,00,40,11.80
2017,09,16,00,41,11.80
2017,09,16,00,42,11.90
2017,09,16,00,43,11.90
2017,09,16,00,44,11.90
2017,09,16,00,45,11.90
2017,09,16,00,46,11.90
2017,09,16,00,47,11.80
2017,09,16,00,48,11.80
2017,09,16,00,49,11.80
2017,09,16,00,50,11.80
2017,09,16,00,51,11.80
2017,09,16,00,52,11.80
2017,09,16,00,53,11.80
2017,09,16,00,54,11.80
2017,09,16,00,55,11.80
2017,09,16,00,56,11.80
2017,09,16,00,57,11.80
2017,09,16,00,58,11.80
2017,09,16,00,59,11.80
2017,09,16,01,00,11.80
2017,09,16,01,01,11.80
2017,09,16,01,02,11.80
2017,09,16,01,03,11.80
2017,09,16,01,04,11.70
2017,09,16,01,05,11.70
2017,09,16,01,06,11.70
2017,09,16,01,07,11.70
2017,09,16,01,08,11.70
2017,09,16,01,09,11.70
2017,09,16,01,10,11.70
2017,09,16,01,11,11.70
2017,09,16,01,12,11.70
2017,09,16,01,13,11.70
2017,09,16,01,14,11.80
2017,09,16,01,15,11.80
2017,09,16,01,16,11.80
2017,09,16,01,17,11.80
2017,09,16,01,18,11.80
2017,09,16,01,19,11.80
2017,09,16,01,20,11.80
2017,09,16,01,21,11.70
2017,09,16,01,22,11.70
2017,09,16,01,23,11.70
2017,09,16,01,24,11.70
2017,09,16,01,25,11.70
2017,09,16,01,26,11.70
2017,09,16,01,27,11.70
2017,09,16,01,28,11.70
2017,09,16,01,29,11.70
2017,09,16,01,30,11.70
2017,09,16,01,31,11.70
2017,09,16,01,32,11.70
2017,09,16,01,33,11.70
2017,09,16,01,34,11.70
2017,09,16,01,35,11.70
2017,09,16,01,36,11.70
2017,09,16,01,37,11.70
2017,09,16,01,38,11.60
2017,09,16,01,39,11.60
2017,09,16,01,40,11.60
2017,09,16,01,41,11.60
2017,09,16,01,42,11.50
2017,09,16,01,43,11.50
2017,09,16,01,44,11.50
2017,09,16,01,45,11.50
2017,09,16,01,46,11.50
2017,09,16,01,47,11.50
2017,09,16,01,48,11.50
2017,09,16,01,49,11.50
2017,09,16,01,50,11.50
2017,09,16,01,51,11.40
2017,09,16,01,52,11.40
2017,09,16,01,53,11.40
2017,09,16,01,54,11.30
2017,09,16,01,55,11.30
2017,09,16,01,56,11.30
2017,09,16,01,57,11.20
2017,09,16,01,58,11.20
2017,09,16,01,59,11.20
2017,09,16,02,00,11.20
2017,09,16,02,01,11.10
2017,09,16,02,02,11.10
2017,09,16,02,03,11.10
2017,09,16,02,04,11.10
2017,09,16,02,05,11.00
2017,09,16,02,06,11.00
2017,09,16,02,07,11.00
2017,09,16,02,08,11.00
2017,09,16,02,09,11.00
2017,09,16,02,10,11.00
2017,09,16,02,11,10.90
2017,09,16,02,12,10.90
2017,09,16,02,13,10.90
2017,09,16,02,14,10.90
2017,09,16,02,15,10.90
2017,09,16,02,16,10.90
2017,09,16,02,17,10.90
2017,09,16,02,18,10.90
2017,09,16,02,19,10.90
2017,09,16,02,20,11.00
2017,09,16,02,21,11.00
2017,09,16,02,22,11.00
2017,09,16,02,23,11.10
2017,09,16,02,24,11.10
2017,09,16,02,25,11.10
2017,09,16,02,26,11.10
2017,09,16,02,27,11.00
2017,09,16,02,28,11.00
2017,09,16,02,29,11.00
2017,09,16,02,30,11.00
2017,09,16,02,31,11.00
2017,09,16,02,32,10.90
2017,09,16,02,33,10.90
2017,09,16,02,34,10.90
2017,09,16,02,35,10.90
2017,09,16,02,36,10.90
2017,09,16,02,37,10.80
2017,09,16,02,38,10.80
2017,09,16,02,39,10.80
2017,09,16,02,40,10.80
2017,09,16,02,41,10.80
2017,09,16,02,42,10.70
2017,09,16,02,43,10.70
2017,09,16,02,44,10.70
2017,09,16,02,45,10.70
2017,09,16,02,46,10.70
2017,09,16,02,47,10.70
2017,09,16,02,48,10.70
2017,09,16,02,49,10.70
2017,09,16,02,50,10.70
2017,09,16,02,51,10.70
2017,09,16,02,52,10.70
2017,09,16,02,53,10.70
2017,09,16,02,54,10.80
2017,09,16,02,55,10.80
2017,09,16,02,56,10.80
2017,09,16,02,57,10.80
2017,09,16,02,58,10.80
2017,09,16,02,59,10.80
2017,09,16,03,00,10.80
2017,09,16,03,01,10.80
2017,09,16,03,02,10.80
2017,09,16,03,03,10.80
2017,09,16,03,04,10.80
2017,09,16,03,05,10.80
2017,09,16,03,06,10.80
2017,09,16,03,07,10.80
2017,09,16,03,08,10.80
2017,09,16,03,09,10.80
2017,09,16,03,10,10.80
2017,09,16,03,11,10.80
2017,09,16,03,12,10.80
2017,09,16,03,13,10.80
2017,09,16,03,14,10.80
2017,09,16,03,15,10.90
2017,09,16,03,16,10.90
2017,09,16,03,17,10.90
2017,09,16,03,18,11.00
2017,09,16,03,19,11.00
2017,09,16,03,20,11.00
2017,09,16,03,21,11.10
2017,09,16,03,22,11.10
2017,09,16,03,23,11.10
2017,09,16,03,24,11.10
2017,09,16,03,25,11.10
2017,09,16,03,26,11.20
2017,09,16,03,27,11.20
2017,09,16,03,28,11.20
2017,09,16,03,29,11.20
2017,09,16,03,30,11.20
2017,09,16,03,31,11.20
2017,09,16,03,32,11.20
2017,09,16,03,33,11.20
2017,09,16,03,34,11.20
2017,09,16,03,35,11.30
2017,09,16,03,36,11.30
2017,09,16,03,37,11.30
2017,09,16,03,38,11.30
2017,09,16,03,39,11.30
2017,09,16,03,40,11.30
2017,09,16,03,41,11.30
2017,09,16,03,42,11.30
2017,09,16,03,43,11.30
2017,09,16,03,44,11.30
2017,09,16,03,45,11.30
2017,09,16,03,46,11.30
2017,09,16,03,47,11.30
2017,09,16,03,48,11.30
2017,09,16,03,49,11.30
2017,09,16,03,50,11.30
2017,09,16,03,51,11.40
2017,09,16,03,52,11.40
2017,09,16,03,53,11.40
2017,09,16,03,54,11.40
2017,09,16,03,55,11.40
2017,09,16,03,56,11.40
2017,09,16,03,57,11.40
2017,09,16,03,58,11.40
2017,09,16,03,59,11.40
2017,09,16,04,00,11.40
2017,09,16,04,01,11.40
2017,09,16,04,02,11.40
2017,09,16,04,03,11.40
2017,09,16,04,04,11.40
2017,09,16,04,05,11.40
2017,09,16,04,06,11.40
2017,09,16,04,07,11.40
2017,09,16,04,08,11.40
2017,09,16,04,09,11.40
2017,09,16,04,10,11.40
2017,09,16,04,11,11.40
2017,09,16,04,12,11.40
2017,09,16,04,13,11.40
2017,09,16,04,14,11.40
2017,09,16,04,15,11.40
2017,09,16,04,16,11.40
2017,09,16,04,17,11.40
2017,09,16,04,18,11.40
2017,09,16,04,19,11.40
2017,09,16,04,20,11.40
2017,09,16,04,21,11.40
2017,09,16,04,22,11.30
2017,09,16,04,23,11.30
2017,09,16,04,24,11.30
2017,09,16,04,25,11.20
2017,09,16,04,26,11.20
2017,09,16,04,27,11.20
2017,09,16,04,28,11.20
2017,09,16,04,29,11.20
2017,09,16,04,30,11.20
2017,09,16,04,31,11.20
2017,09,16,04,32,11.30
2017,09,16,04,33,11.30
2017,09,16,04,34,11.30
2017,09,16,04,35,11.30
2017,09,16,04,36,11.30
2017,09,16,04,37,11.30
2017,09,16,04,38,11.30
2017,09,16,04,39,11.30
2017,09,16,04,40,11.30
2017,09,16,04,41,11.30
2017,09,16,04,42,11.30
2017,09,16,04,43,11.30
2017,09,16,04,44,11.30
2017,09,16,04,45,11.30
2017,09,16,04,46,11.30
2017,09,16,04,47,11.30
2017,09,16,04,48,11.30
2017,09,16,04,49,11.30
2017,09,16,04,50,11.30
2017,09,16,04,51,11.30
2017,09,16,04,52,11.30
2017,09,16,04,53,11.30
2017,09,16,04,54,11.30
2017,09,16,04,55,11.30
2017,09,16,04,56,11.20
2017,09,16,04,57,11.20
2017,09,16,04,58,11.20
2017,09,16,04,59,11.20
2017,09,16,05,00,11.20
2017,09,16,05,01,11.20
2017,09,16,05,02,11.30
2017,09,16,05,03,11.30
2017,09,16,05,04,11.30
2017,09,16,05,05,11.30
2017,09,16,05,06,11.40
2017,09,16,05,07,11.40
2017,09,16,05,08,11.40
2017,09,16,05,09,11.40
2017,09,16,05,10,11.40
2017,09,16,05,11,11.40
2017,09,16,05,12,11.40
2017,09,16,05,13,11.40
2017,09,16,05,14,11.40
2017,09,16,05,15,11.30
2017,09,16,05,16,11.30
2017,09,16,05,17,11.20
2017,09,16,05,18,11.20
2017,09,16,05,19,11.20
2017,09,16,05,20,11.10
2017,09,16,05,21,11.10
2017,09,16,05,22,11.00
2017,09,16,05,23,11.00
2017,09,16,05,24,10.90
2017,09,16,05,25,10.90
2017,09,16,05,26,10.90
2017,09,16,05,27,10.80
2017,09,16,05,28,10.80
2017,09,16,05,29,10.80
2017,09,16,05,30,10.80
2017,09,16,05,31,10.80
2017,09,16,05,32,10.80
2017,09,16,05,33,10.70
2017,09,16,05,34,10.70
2017,09,16,05,35,10.70
2017,09,16,05,36,10.70
2017,09,16,05,37,10.70
2017,09,16,05,38,10.70
2017,09,16,05,39,10.60
2017,09,16,05,40,10.60
2017,09,16,05,41,10.60
2017,09,16,05,42,10.60
2017,09,16,05,43,10.50
2017,09,16,05,44,10.50
2017,09,16,05,45,10.40
2017,09,16,05,46,10.40
2017,09,16,05,47,10.40
2017,09,16,05,48,10.30
2017,09,16,05,49,10.30
2017,09,16,05,50,10.30
2017,09,16,05,51,10.30
2017,09,16,05,52,10.20
2017,09,16,05,53,10.20
2017,09,16,05,54,10.10
2017,09,16,05,55,10.10
2017,09,16,05,56,10.00
2017,09,16,05,57,10.00
2017,09,16,05,58,10.00
2017,09,16,05,59,9.90
2017,09,16,06,00,9.90
2017,09,16,06,01,9.90
2017,09,16,06,02,9.80
2017,09,16,06,03,9.80
2017,09,16,06,04,9.80
2017,09,16,06,05,9.80
2017,09,16,06,06,9.80
2017,09,16,06,07,9.80
2017,09,16,06,08,9.70
2017,09,16,06,09,9.70
2017,09,16,06,10,9.70
2017,09,16,06,11,9.70
2017,09,16,06,12,9.70
2017,09,16,06,13,9.70
2017,09,16,06,14,9.70
2017,09,16,06,15,9.70
2017,09,16,06,16,9.70
2017,09,16,06,17,9.70
2017,09,16,06,18,9.70
2017,09,16,06,19,9.70
2017,09,16,06,20,9.70
2017,09,16,06,21,9.70
2017,09,16,06,22,9.70
2017,09,16,06,23,9.60
2017,09,16,06,24,9.60
2017,09,16,06,25,9.60
2017,09,16,06,26,9.60
2017,09,16,06,27,9.60
2017,09,16,06,28,9.60
2017,09,16,06,29,9.60
2017,09,16,06,30,9.60
2017,09,16,06,31,9.60
2017,09,16,06,32,9.60
2017,09,16,06,33,9.60
2017,09,16,06,34,9.60
2017,09,16,06,35,9.60
2017,09,16,06,36,9.60
2017,09,16,06,37,9.60
2017,09,16,06,38,9.60
2017,09,16,06,39,9.60
2017,09,16,06,40,9.70
2017,09,16,06,41,9.70
2017,09,16,06,42,9.70
2017,09,16,06,43,9.70
2017,09,16,06,44,9.70
2017,09,16,06,45,9.70
2017,09,16,06,46,9.70
2017,09,16,06,47,9.70
2017,09,16,06,48,9.70
2017,09,16,06,49,9.70
2017,09,16,06,50,9.70
2017,09,16,06,51,9.70
2017,09,16,06,52,9.70
2017,09,16,06,53,9.70
2017,09,16,06,54,9.70
2017,09,16,06,55,9.70
2017,09,16,06,56,9.70
2017,09,16,06,57,9.70
2017,09,16,06,58,9.70
2017,09,16,06,59,9.70
2017,09,16,07,00,9.70
2017,09,16,07,01,9.70
2017,09,16,07,02,9.70
2017,09,16,07,03,9.70
2017,09,16,07,04,9.70
2017,09,16,07,05,9.80
2017,09,16,07,06,9.80
2017,09,16,07,07,9.80
2017,09,16,07,08,9.80
2017,09,16,07,09,9.80
2017,09,16,07,10,9.90
2017,09,16,07,11,9.90
2017,09,16,07,12,9.90
2017,09,16,07,13,9.90
2017,09,16,07,14,9.90
2017,09,16,07,15,9.90
2017,09,16,07,16,9.90
2017,09,16,07,17,9.90
2017,09,16,07,18,9.90
2017,09,16,07,19,9.90
2017,09,16,07,20,9.90
2017,09,16,07,21,9.90
2017,09,16,07,22,9.90
2017,09,16,07,23,9.90
2017,09,16,07,24,9.90
2017,09,16,07,25,9.90
2017,09,16,07,26,9.90
2017,09,16,07,27,10.00
2017,09,16,07,28,10.00
2017,09,16,07,29,10.00
2017,09,16,07,30,10.00
2017,09,16,07,31,10.00
2017,09,16,07,32,10.00
2017,09,16,07,33,10.00
2017,09,16,07,34,10.00
2017,09,16,07,35,10.00
2017,09,16,07,36,10.00
2017,09,16,07,37,10.00
2017,09,16,07,38,10.00
2017,09,16,07,39,10.00
2017,09,16,07,40,10.00
2017,09,16,07,41,10.10
2017,09,16,07,42,10.10
2017,09,16,07,43,10.10
2017,09,16,07,44,10.10
2017,09,16,07,45,10.10
2017,09,16,07,46,10.10
2017,09,16,07,47,10.10
2017,09,16,07,48,10.10
2017,09,16,07,49,10.10
2017,09,16,07,50,10.20
2017,09,16,07,51,10.20
2017,09,16,07,52,10.20
2017,09,16,07,53,10.20
2017,09,16,07,54,10.30
2017,09,16,07,55,10.30
2017,09,16,07,56,10.30
2017,09,16,07,57,10.30
2017,09,16,07,58,10.40
2017,09,16,07,59,10.40
2017,09,16,08,00,10.50
2017,09,16,08,01,10.50
2017,09,16,08,02,10.50
2017,09,16,08,03,10.60
2017,09,16,08,04,10.60
2017,09,16,08,05,10.70
2017,09,16,08,06,10.70
2017,09,16,08,07,10.70
2017,09,16,08,08,10.70
2017,09,16,08,09,10.80
2017,09,16,08,10,10.80
2017,09,16,08,11,10.80
2017,09,16,08,12,10.80
2017,09,16,08,13,10.80
2017,09,16,08,14,10.80
2017,09,16,08,15,10.80
2017,09,16,08,16,10.80
2017,09,16,08,17,10.80
2017,09,16,08,18,10.80
2017,09,16,08,19,10.80
2017,09,16,08,20,10.80
2017,09,16,08,21,10.80
2017,09,16,08,22,10.80
2017,09,16,08,23,10.90
2017,09,16,08,24,10.90
2017,09,16,08,25,10.90
2017,09,16,08,26,10.90
2017,09,16,08,27,10.90
2017,09,16,08,28,10.90
2017,09,16,08,29,10.90
2017,09,16,08,30,10.90
2017,09,16,08,31,10.90
2017,09,16,08,32,10.90
2017,09,16,08,33,10.90
2017,09,16,08,34,10.90
2017,09,16,08,35,11.00
2017,09,16,08,36,11.00
2017,09,16,08,37,11.00
2017,09,16,08,38,11.10
2017,09,16,08,39,11.10
2017,09,16,08,40,11.10
2017,09,16,08,41,11.10
2017,09,16,08,42,11.10
2017,09,16,08,43,11.20
2017,09,16,08,44,11.20
2017,09,16,08,45,11.20
2017,09,16,08,46,11.20
2017,09,16,08,47,11.20
2017,09,16,08,48,11.30
2017,09,16,08,49,11.30
2017,09,16,08,50,11.30
2017,09,16,08,51,11.30
2017,09,16,08,52,11.40
2017,09,16,08,53,11.50
2017,09,16,08,54,11.50
2017,09,16,08,55,11.60
2017,09,16,08,56,11.60
2017,09,16,08,57,11.70
2017,09,16,08,58,11.70
2017,09,16,08,59,11.80
2017,09,16,09,00,11.80
2017,09,16,09,01,11.90
2017,09,16,09,02,11.90
2017,09,16,09,03,12.00
2017,09,16,09,04,12.00
2017,09,16,09,05,12.00
2017,09,16,09,06,12.10
2017,09,16,09,07,12.10
2017,09,16,09,08,12.10
2017,09,16,09,09,12.20
2017,09,16,09,10,12.20
2017,09,16,09,11,12.20
2017,09,16,09,12,12.20
2017,09,16,09,13,12.30
2017,09,16,09,14,12.40
2017,09,16,09,15,12.40
2017,09,16,09,16,12.50
2017,09,16,09,17,12.60
2017,09,16,09,18,12.60
2017,09,16,09,19,12.70
2017,09,16,09,20,12.70
2017,09,16,09,21,12.70
2017,09,16,09,22,12.80
2017,09,16,09,23,12.80
2017,09,16,09,24,12.80
2017,09,16,09,25,12.80
2017,09,16,09,26,12.80
2017,09,16,09,27,12.80
2017,09,16,09,28,12.90
2017,09,16,09,29,12.90
2017,09,16,09,30,12.90
2017,09,16,09,31,13.00
2017,09,16,09,32,13.00
2017,09,16,09,33,13.10
2017,09,16,09,34,13.10
2017,09,16,09,35,13.10
2017,09,16,09,36,13.10
2017,09,16,09,37,13.10
2017,09,16,09,38,13.20
2017,09,16,09,39,13.10
2017,09,16,09,40,13.10
2017,09,16,09,41,13.10
2017,09,16,09,42,13.10
2017,09,16,09,43,13.10
2017,09,16,09,44,13.10
2017,09,16,09,45,13.10
2017,09,16,09,46,13.10
2017,09,16,09,47,13.20
2017,09,16,09,48,13.20
2017,09,16,09,49,13.20
2017,09,16,09,50,13.30
2017,09,16,09,51,13.30
2017,09,16,09,52,13.30
2017,09,16,09,53,13.30
2017,09,16,09,54,13.40
2017,09,16,09,55,13.40
2017,09,16,09,56,13.50
2017,09,16,09,57,13.60
2017,09,16,09,58,13.70
2017,09,16,09,59,13.70
2017,09,16,10,00,13.80
2017,09,16,10,01,13.80
2017,09,16,10,02,13.90
2017,09,16,10,03,13.90
2017,09,16,10,04,13.90
2017,09,16,10,05,13.90
2017,09,16,10,06,13.90
2017,09,16,10,07,14.00
2017,09,16,10,08,14.00
2017,09,16,10,09,14.00
2017,09,16,10,10,14.00
2017,09,16,10,11,14.00
2017,09,16,10,12,14.00
2017,09,16,10,13,13.90
2017,09,16,10,14,13.90
2017,09,16,10,15,13.90
2017,09,16,10,16,13.90
2017,09,16,10,17,13.90
2017,09,16,10,18,13.90
2017,09,16,10,19,13.80
2017,09,16,10,20,13.90
2017,09,16,10,21,13.90
2017,09,16,10,22,14.00
2017,09,16,10,23,14.10
2017,09,16,10,24,14.10
2017,09,16,10,25,14.10
2017,09,16,10,26,14.20
2017,09,16,10,27,14.20
2017,09,16,10,28,14.20
2017,09,16,10,29,14.20
2017,09,16,10,30,14.20
2017,09,16,10,31,14.30
2017,09,16,10,32,14.30
2017,09,16,10,33,14.30
2017,09,16,10,34,14.30
2017,09,16,10,35,14.30
2017,09,16,10,36,14.30
2017,09,16,10,37,14.30
2017,09,16,10,38,14.30
2017,09,16,10,39,14.30
2017,09,16,10,40,14.30
2017,09,16,10,41,14.30
2017,09,16,10,42,14.30
2017,09,16,10,43,14.30
2017,09,16,10,44,14.30
2017,09,16,10,45,14.30
2017,09,16,10,46,14.20
2017,09,16,10,47,14.20
2017,09,16,10,48,14.10
2017,09,16,10,49,14.10
2017,09,16,10,50,14.00
2017,09,16,10,51,14.00
2017,09,16,10,52,14.00
2017,09,16,10,53,14.00
2017,09,16,10,54,14.00
2017,09,16,10,55,14.10
2017,09,16,10,56,14.20
2017,09,16,10,57,14.20
2017,09,16,10,58,14.20
2017,09,16,10,59,14.30
2017,09,16,11,00,14.40
2017,09,16,11,01,14.50
2017,09,16,11,02,14.50
2017,09,16,11,03,14.50
2017,09,16,11,04,14.60
2017,09,16,11,05,14.70
2017,09,16,11,06,14.80
2017,09,16,11,07,14.90
2017,09,16,11,08,15.00
2017,09,16,11,09,15.10
2017,09,16,11,10,15.10
2017,09,16,11,11,15.20
2017,09,16,11,12,15.30
2017,09,16,11,13,15.40
2017,09,16,11,14,15.50
2017,09,16,11,15,15.60
2017,09,16,11,16,15.60
2017,09,16,11,17,15.60
2017,09,16,11,18,15.60
2017,09,16,11,19,15.70
2017,09,16,11,20,15.80
2017,09,16,11,21,15.90
2017,09,16,11,22,15.90
2017,09,16,11,23,15.90
2017,09,16,11,24,15.90
2017,09,16,11,25,15.90
2017,09,16,11,26,15.90
2017,09,16,11,27,15.90
2017,09,16,11,28,15.90
2017,09,16,11,29,15.90
2017,09,16,11,30,15.90
2017,09,16,11,31,15.90
2017,09,16,11,32,16.00
2017,09,16,11,33,16.00
2017,09,16,11,34,16.10
2017,09,16,11,35,16.20
2017,09,16,11,36,16.20
2017,09,16,11,37,16.30
2017,09,16,11,38,16.20
2017,09,16,11,39,16.20
2017,09,16,11,40,16.20
2017,09,16,11,41,16.20
2017,09,16,11,42,16.20
2017,09,16,11,43,16.10
2017,09,16,11,44,16.10
2017,09,16,11,45,16.20
2017,09,16,11,46,16.20
2017,09,16,11,47,16.30
2017,09,16,11,48,16.30
2017,09,16,11,49,16.30
2017,09,16,11,50,16.30
2017,09,16,11,51,16.30
2017,09,16,11,52,16.30
2017,09,16,11,53,16.20
2017,09,16,11,54,16.20
2017,09,16,11,55,16.30
2017,09,16,11,56,16.30
2017,09,16,11,57,16.30
2017,09,16,11,58,16.30
2017,09,16,11,59,16.30
2017,09,16,12,00,16.30
2017,09,16,12,01,16.20
2017,09,16,12,02,16.00
2017,09,16,12,03,15.90
2017,09,16,12,04,15.80
2017,09,16,12,05,15.70
2017,09,16,12,06,15.70
2017,09,16,12,07,15.70
2017,09,16,12,08,15.70
2017,09,16,12,09,15.70
2017,09,16,12,10,15.80
2017,09,16,12,11,15.90
2017,09,16,12,12,15.90
2017,09,16,12,13,15.90
2017,09,16,12,14,16.00
2017,09,16,12,15,16.00
2017,09,16,12,16,16.10
2017,09,16,12,17,16.30
2017,09,16,12,18,16.30
2017,09,16,12,19,16.30
2017,09,16,12,20,16.40
2017,09,16,12,21,16.40
2017,09,16,12,22,16.30
2017,09,16,12,23,16.40
2017,09,16,12,24,16.40
2017,09,16,12,25,16.40
2017,09,16,12,26,16.40
2017,09,16,12,27,16.50
2017,09,16,12,28,16.60
2017,09,16,12,29,16.70
2017,09,16,12,30,16.70
2017,09,16,12,31,16.70
2017,09,16,12,32,16.80
2017,09,16,12,33,16.90
2017,09,16,12,34,16.90
2017,09,16,12,35,17.00
2017,09,16,12,36,17.10
2017,09,16,12,37,17.20
2017,09,16,12,38,17.20
2017,09,16,12,39,17.30
2017,09,16,12,40,17.20
2017,09,16,12,41,17.20
2017,09,16,12,42,17.20
2017,09,16,12,43,17.20
2017,09,16,12,44,17.10
2017,09,16,12,45,17.00
2017,09,16,12,46,17.00
2017,09,16,12,47,17.00
2017,09,16,12,48,17.00
2017,09,16,12,49,16.90
2017,09,16,12,50,16.80
2017,09,16,12,51,16.80
2017,09,16,12,52,16.80
2017,09,16,12,53,16.80
2017,09,16,12,54,16.80
2017,09,16,12,55,16.90
2017,09,16,12,56,16.80
2017,09,16,12,57,16.80
2017,09,16,12,58,16.90
2017,09,16,12,59,16.90
2017,09,16,13,00,16.90
2017,09,16,13,01,17.00
2017,09,16,13,02,17.00
2017,09,16,13,03,17.10
2017,09,16,13,04,17.00
2017,09,16,13,05,17.00
2017,09,16,13,06,17.00
2017,09,16,13,07,17.00
2017,09,16,13,08,17.00
2017,09,16,13,09,17.10
2017,09,16,13,10,17.30
2017,09,16,13,11,17.30
2017,09,16,13,12,17.40
2017,09,16,13,13,17.50
2017,09,16,13,14,17.50
2017,09,16,13,15,17.50
2017,09,16,13,16,17.40
2017,09,16,13,17,17.40
2017,09,16,13,18,17.40
2017,09,16,13,19,17.40
2017,09,16,13,20,17.40
2017,09,16,13,21,17.40
2017,09,16,13,22,17.30
2017,09,16,13,23,17.30
2017,09,16,13,24,17.30
2017,09,16,13,25,17.30
2017,09,16,13,26,17.30
2017,09,16,13,27,17.30
2017,09,16,13,28,17.30
2017,09,16,13,29,17.30
2017,09,16,13,30,17.30
2017,09,16,13,31,17.30
2017,09,16,13,32,17.30
2017,09,16,13,33,17.30
2017,09,16,13,34,17.40
2017,09,16,13,35,17.40
2017,09,16,13,36,17.50
2017,09,16,13,37,17.70
2017,09,16,13,38,17.80
2017,09,16,13,39,17.80
2017,09,16,13,40,17.90
2017,09,16,13,41,17.90
2017,09,16,13,42,17.90
2017,09,16,13,43,17.90
2017,09,16,13,44,18.00
2017,09,16,13,45,18.10
2017,09,16,13,46,18.00
2017,09,16,13,47,17.90
2017,09,16,13,48,17.90
2017,09,16,13,49,17.90
2017,09,16,13,50,17.90
2017,09,16,13,51,17.80
2017,09,16,13,52,17.80
2017,09,16,13,53,17.90
2017,09,16,13,54,17.90
2017,09,16,13,55,17.90
2017,09,16,13,56,17.90
2017,09,16,13,57,18.00
2017,09,16,13,58,18.10
2017,09,16,13,59,18.00
2017,09,16,14,00,17.90
2017,09,16,14,01,17.90
2017,09,16,14,02,17.80
2017,09,16,14,03,17.80
2017,09,16,14,04,17.90
2017,09,16,14,05,17.90
2017,09,16,14,06,17.90
2017,09,16,14,07,18.00
2017,09,16,14,08,18.00
2017,09,16,14,09,18.10
2017,09,16,14,10,18.10
2017,09,16,14,11,18.10
2017,09,16,14,12,18.10
2017,09,16,14,13,18.10
2017,09,16,14,14,18.00
2017,09,16,14,15,18.00
2017,09,16,14,16,18.10
2017,09,16,14,17,18.10
2017,09,16,14,18,18.20
2017,09,16,14,19,18.40
2017,09,16,14,20,18.50
2017,09,16,14,21,18.60
2017,09,16,14,22,18.60
2017,09,16,14,23,18.60
2017,09,16,14,24,18.50
2017,09,16,14,25,18.50
2017,09,16,14,26,18.50
2017,09,16,14,27,18.60
2017,09,16,14,28,18.70
2017,09,16,14,29,18.70
2017,09,16,14,30,18.60
2017,09,16,14,31,18.50
2017,09,16,14,32,18.40
2017,09,16,14,33,18.40
2017,09,16,14,34,18.40
2017,09,16,14,35,18.40
2017,09,16,14,36,18.30
2017,09,16,14,37,18.30
2017,09,16,14,38,18.30
2017,09,16,14,39,18.30
2017,09,16,14,40,18.30
2017,09,16,14,41,18.30
2017,09,16,14,42,18.40
2017,09,16,14,43,18.50
2017,09,16,14,44,18.60
2017,09,16,14,45,18.70
2017,09,16,14,46,18.90
2017,09,16,14,47,19.10
2017,09,16,14,48,19.10
2017,09,16,14,49,19.20
2017,09,16,14,50,19.30
2017,09,16,14,51,19.30
2017,09,16,14,52,19.40
2017,09,16,14,53,19.40
2017,09,16,14,54,19.30
2017,09,16,14,55,19.30
2017,09,16,14,56,19.30
2017,09,16,14,57,19.30
2017,09,16,14,58,19.20
2017,09,16,14,59,19.20
2017,09,16,15,00,19.30
2017,09,16,15,01,19.40
2017,09,16,15,02,19.40
2017,09,16,15,03,19.40
2017,09,16,15,04,19.40
2017,09,16,15,05,19.40
2017,09,16,15,06,19.20
2017,09,16,15,07,19.20
2017,09,16,15,08,19.20
2017,09,16,15,09,19.30
2017,09,16,15,10,19.20
2017,09,16,15,11,19.20
2017,09,16,15,12,19.20
2017,09,16,15,13,19.30
2017,09,16,15,14,19.40
2017,09,16,15,15,19.40
2017,09,16,15,16,19.40
2017,09,16,15,17,19.30
2017,09,16,15,18,19.20
2017,09,16,15,19,19.10
2017,09,16,15,20,19.00
2017,09,16,15,21,18.90
2017,09,16,15,22,18.90
2017,09,16,15,23,18.90
2017,09,16,15,24,18.80
2017,09,16,15,25,18.80
2017,09,16,15,26,18.80
2017,09,16,15,27,18.80
2017,09,16,15,28,18.80
2017,09,16,15,29,18.80
2017,09,16,15,30,18.80
2017,09,16,15,31,18.80
2017,09,16,15,32,18.90
2017,09,16,15,33,18.90
2017,09,16,15,34,19.10
2017,09,16,15,35,19.20
2017,09,16,15,36,19.30
2017,09,16,15,37,19.40
2017,09,16,15,38,19.40
2017,09,16,15,39,19.50
2017,09,16,15,40,19.50
2017,09,16,15,41,19.60
2017,09,16,15,42,19.60
2017,09,16,15,43,19.60
2017,09,16,15,44,19.60
2017,09,16,15,45,19.60
2017,09,16,15,46,19.50
2017,09,16,15,47,19.50
2017,09,16,15,48,19.60
2017,09,16,15,49,19.60
2017,09,16,15,50,19.60
2017,09,16,15,51,19.60
2017,09,16,15,52,19.50
2017,09,16,15,53,19.40
2017,09,16,15,54,19.40
2017,09,16,15,55,19.30
2017,09,16,15,56,19.30
2017,09,16,15,57,19.30
2017,09,16,15,58,19.30
2017,09,16,15,59,19.40
2017,09,16,16,00,19.30
2017,09,16,16,01,19.30
2017,09,16,16,02,19.20
2017,09,16,16,03,19.20
2017,09,16,16,04,19.30
2017,09,16,16,05,19.40
2017,09,16,16,06,19.50
2017,09,16,16,07,19.60
2017,09,16,16,08,19.70
2017,09,16,16,09,19.70
2017,09,16,16,10,19.70
2017,09,16,16,11,19.80
2017,09,16,16,12,19.80
2017,09,16,16,13,19.80
2017,09,16,16,14,19.80
2017,09,16,16,15,19.80
2017,09,16,16,16,19.70
2017,09,16,16,17,19.70
2017,09,16,16,18,19.70
2017,09,16,16,19,19.70
2017,09,16,16,20,19.70
2017,09,16,16,21,19.70
2017,09,16,16,22,19.70
2017,09,16,16,23,19.60
2017,09,16,16,24,19.50
2017,09,16,16,25,19.50
2017,09,16,16,26,19.40
2017,09,16,16,27,19.30
2017,09,16,16,28,19.20
2017,09,16,16,29,19.10
2017,09,16,16,30,19.10
2017,09,16,16,31,19.10
2017,09,16,16,32,19.10
2017,09,16,16,33,19.00
2017,09,16,16,34,19.00
2017,09,16,16,35,19.00
2017,09,16,16,36,18.90
2017,09,16,16,37,18.90
2017,09,16,16,38,18.90
2017,09,16,16,39,18.90
2017,09,16,16,40,18.90
2017,09,16,16,41,18.90
2017,09,16,16,42,18.80
2017,09,16,16,43,18.70
2017,09,16,16,44,18.70
2017,09,16,16,45,18.70
2017,09,16,16,46,18.70
2017,09,16,16,47,18.60
2017,09,16,16,48,18.60
2017,09,16,16,49,18.50
2017,09,16,16,50,18.40
2017,09,16,16,51,18.30
2017,09,16,16,52,18.30
2017,09,16,16,53,18.20
2017,09,16,16,54,18.20
2017,09,16,16,55,18.20
2017,09,16,16,56,18.20
2017,09,16,16,57,18.30
2017,09,16,16,58,18.30
2017,09,16,16,59,18.30
2017,09,16,17,00,18.30
2017,09,16,17,01,18.40
2017,09,16,17,02,18.40
2017,09,16,17,03,18.40
2017,09,16,17,04,18.40
2017,09,16,17,05,18.40
2017,09,16,17,06,18.40
2017,09,16,17,07,18.40
2017,09,16,17,08,18.40
2017,09,16,17,09,18.40
2017,09,16,17,10,18.40
2017,09,16,17,11,18.40
2017,09,16,17,12,18.40
2017,09,16,17,13,18.40
2017,09,16,17,14,18.40
2017,09,16,17,15,18.40
2017,09,16,17,16,18.30
2017,09,16,17,17,18.30
2017,09,16,17,18,18.30
2017,09,16,17,19,18.30
2017,09,16,17,20,18.30
2017,09,16,17,21,18.20
2017,09,16,17,22,18.20
2017,09,16,17,23,18.20